Regional Weather Roundup
Issued by NWS

Home | Current Version | Previous Version | Graphics & Text | Print | Product List | Glossary Off
Versions: 1 2 3 4 5 6 7 8 9 10 11 12 13 14 15 16 17 18 19 20 21 22 23 24 25 26 27 28 29 30 31 32 33 34 35 36 37 38 39 40 41 42 43 44 45 46 47 48 49 50

000
ASUS43 KMKX 032200
RWRWI

WISCONSIN REGIONAL WEATHER ROUNDUP
NATIONAL WEATHER SERVICE MILWAUKEE/SULLIVAN WI
500 PM CDT SUN MAY 03 2015

NOTE: "FAIR" INDICATES FEW OR NO CLOUDS BELOW 12,000 FEET WITH NO
SIGNIFICANT WEATHER AND/OR OBSTRUCTIONS TO VISIBILITY.

WIZ001-002-006>008-014>016-023>028-032300-
NORTHWEST WISCONSIN

CITY           SKY/WX    TMP DP  RH WIND       PRES   REMARKS
SUPERIOR ARPT  CLOUDY    71  37  28 NW24      29.81R
ASHLAND        CLOUDY    74  45  35 W3        29.78R
HAYWARD        PTSUNNY   66  54  65 NE8       29.80R
SIREN          PTSUNNY   77  47  34 NW9G16    29.79R
CUMBERLAND     CLOUDY    77  45  31 NE6       29.78S
RICE LAKE      MOSUNNY   79  47  31 SW3       29.78S
CHETEK         PTSUNNY   79  54  42 CALM      29.76F
LADYSMITH      SUNNY     79  51  36 SW12      29.78F
EAU CLAIRE     NOT AVBL
MENOMONIE      SUNNY     80  52  37 S5        29.76F HX  80
NEW RICHMOND   SUNNY     81  48  31 CALM      29.75F HX  80
OSCEOLA        MOSUNNY   77  51  40 NW8       29.78F
$$

WIZ003>005-009-010-017-018-032300-
NORTH CENTRAL WISCONSIN

CITY           SKY/WX    TMP DP  RH WIND       PRES   REMARKS
MANITOWISH WTR PTSUNNY   76  47  36 NW8       29.77S
ARBOR VITAE    PTSUNNY   77  47  34 NW6       29.78R
WOODRUFF       PTSUNNY   77  47  34 NW6       29.78R
RHINELANDER    MOSUNNY   78  50  37 W12G20    29.79S
EAGLE RIVER    PTSUNNY   77  44  30 SW13      29.77S
LAND O LAKES   PTSUNNY   78  44  29 SW8       29.77S
PHILLIPS       MOSUNNY   76  52  43 SW6       29.77F
TOMAHAWK       MOSUNNY   77  47  33 CALM      29.78F
MEDFORD        MOSUNNY   77  52  41 SW7       29.79F
MERRILL        MOSUNNY   79  53  40 S7        29.78F
$$

WIZ029-030-035-036-043>047-032300-
CENTRAL WISCONSIN

CITY           SKY/WX    TMP DP  RH WIND       PRES   REMARKS
WAUSAU         SUNNY     79  51  37 SW10      29.77F
MOSINEE        NOT AVBL
MARSHFIELD     PTSUNNY   81  52  36 W8        29.78F HX  80
STEVENS POINT  MOSUNNY   77  51  41 SW13G22   29.80F
WAUPACA        PTSUNNY   80  52  37 S13       29.80F HX  80
WAUTOMA        NOT AVBL
WISC RAPIDS    MOSUNNY   81  50  33 SW14G20   29.80F HX  80
CAMP DOUGLAS   NOT AVBL
$$

WIZ011>013-019>022-031-037>040-048>050-032300-
NORTHEAST WISCONSIN

CITY           SKY/WX    TMP DP  RH WIND       PRES   REMARKS
ANTIGO         MOSUNNY   77  51  40 SW12      29.80S
SHAWANO        FAIR      81  51  36 S13G20    29.79S HX  80
OCONTO         MOSUNNY   80  55  41 S15G22    29.79S HX  80
STURGEON BAY   MOSUNNY   70  48  46 S16       29.84S
GREEN BAY      MOSUNNY   79  55  43 S16G31    29.81F
MANITOWOC      NOT AVBL
APPLETON       PTSUNNY   77  52  41 SW21G28   29.83S
CLINTONVILLE   MOSUNNY   79  50  36 SW15G22   29.80S
OSHKOSH        PTSUNNY   77  55  46 S24G32    29.83S
$$

WIZ032>034-041-042-053>061-032300-
SOUTHWEST WISCONSIN

CITY           SKY/WX    TMP DP  RH WIND       PRES   REMARKS
LA CROSSE      PTSUNNY   85  53  33 S10       29.76F HX  83
SPARTA         PTSUNNY   80  49  33 S10       29.80S
VIROQUA        SUNNY     80  51  37 S10G16    29.82F HX  80
BOSCOBEL       SUNNY     78  58  49 VRB6      29.83F
PRAIRIE DU CHI SUNNY     79  55  42 SE9       29.81S
PLATTEVILLE    SUNNY     73  57  58 S14       29.87S
$$

WIZ056-057-062-063-064-067-068-032300-
SOUTH CENTRAL WISCONSIN

CITY           SKY/WX    TMP DP  RH WIND       PRES   REMARKS
REEDSBURG      MOSUNNY   76  56  48 S12G18    29.83F
BARABOO/DELLS  NOT AVBL
LONE ROCK      NOT AVBL
MINERAL POINT  SUNNY     73  55  53 S10G18    29.88R
MADISON        PTSUNNY   72  54  53 S15       29.88S
MIDDLETON      MOSUNNY   74  53  47 SW15G24   29.88S
WATERTOWN      PTSUNNY   72  56  58 SW18G25   29.89S
MONROE         PTSUNNY   64  59  82 S18       29.90S
JANESVILLE     LGT RAIN  64  61  88 S15       29.91S
$$

WIZ051-052-058>065-066-070>072-032300-
SOUTHEAST WISCONSIN

CITY           SKY/WX    TMP DP  RH WIND       PRES   REMARKS
MILWAUKEE      CLOUDY    71  52  50 W8        29.91R
WAUKESHA       PTSUNNY   66  54  63 SW16G23   29.92S
MILWAUKEE/TIMM SUNNY     72  52  49 SW14      29.91S
RACINE         CLOUDY    73  51  46 SW8       29.92S
BURLINGTON     RAIN      64  55  74 SW13      29.92R
KENOSHA        CLOUDY    71  53  52 W7        29.91S
FOND DU LAC    PTSUNNY   76  52  43 SW23G31   29.85S
SHEBOYGAN      PTSUNNY   76  54  46 SW17      29.86S
WEST BEND      PTSUNNY   72  48  43 SW15G28   29.88S
JUNEAU         PTSUNNY   73  55  52 SW22G28   29.90S
$$

LSZ147-162-032300-
LAKE SUPERIOR

STATION/POSITION TIME  TEMP    WIND        PRES    WAVE
                       AIR SEA DIR/SP/G            HT/PER
                 (UTC) (F)     (DEG/KT/KT) (MB)    (FT/S)
W MID LAKE BUOY  2050   45 36  260/  6/  6 1008.1R   1
DEVILS ISLAND    2100   66     240/ 10/ 12 1007.3F
PORT WING        2130          290/ 11/ 14 1008.8R
SAXON HARBOR     2100   59        CALM     1007.5
$$

LMZ867-665-643>646-032300-
LAKE MICHIGAN

STATION/POSITION TIME  TEMP    WIND        PRES    WAVE
                       AIR SEA DIR/SP/G            HT/PER
                 (UTC) (F)     (DEG/KT/KT) (MB)    (FT/S)
CHAMBERS ISLAND  2100   71     140/  7/ 16 1009.5F
NORTHPORT PIER   2100   58     160/ 10/ 21 1010.2F
KEWAUNEE LAKESHO 2100   49     180/ 17/ 18 1010.0F
SHEBOYGAN LAKESH 2100   50     170/ 19/ 20 1011.4F
PORT WASHINGTON  2130          220/ 10/ 24 1012.2F
ATWATER BUOY     2100          230/ 12/ 14 1013.6R
MILWAUKEE LAKESH 2100   73     220/ 17/ 24   N/A
KENOSHA   LAKESH 2100   74     220/  7/ 15 1012.5F
$$

TC  - TEMPERATURE IN CELSIUS
VSB - VISIBILITY IN STATUTE MILES
WCI - WIND CHILL INDEX
HX  - HEAT INDEX



USA.gov is the U.S. government's official web portal to all federal, state and local government web resources and services.